Back to catalog

STARLINK-35800

AliveCommunicationsVLEO
NORAD 66291·PAYLOAD·🇺🇸 United States

Launched Oct 31, 2025 from Vandenberg Space Force Base

Loading…

Next Passes (next 24 hours)

TLE

FreshSource: CelesTrak SupGP

Epoch: Sep 14, 2026, 14:40 UTC

1 66291C 25247AC  26257.61159722 -.00100500  00000+0 -29710-2 0  2574
2 66291  53.1599  29.3231 0001218  83.3228 260.7436 15.34423267    12

Track STARLINK-35800 in real time with AllMySat

Download on the App Store